Weather History for Gulf Shores, AL

Change the Weather History Date:

Saturday, April 20, 2013

  Actual Average (KPNS) Record (KPNS)
Temperature  
Mean Temperature 56 °F 68 °F  
Max Temperature 68 °F 77 °F 86 °F (1987)
Min Temperature 44 °F 59 °F 43 °F (1953)
Degree Days  
Heating Degree Days 9 1  
Month to date heating degree days 44  
Since 1 July heating degree days 1528  
Cooling Degree Days 0 4  
Month to date cooling degree days 53  
Year to date cooling degree days 100  
Growing Degree Days 6 (Base 50)    
Moisture  
Dew Point 38 °F    
Average Humidity 58    
Maximum Humidity 87    
Minimum Humidity 26    
Precipitation  
Precipitation 0.00 in 0.15 in 3.72 in (1912)
Month to date precipitation 3.02  
Year to date precipitation 18.52  
Sea Level Pressure  
Sea Level Pressure 30.19 in    
Wind  
Wind Speed 5 mph (NNE)    
Max Wind Speed 16 mph    
Max Gust Speed 24 mph    
Visibility 10 miles    
Events      
T = Trace of Precipitation, MM = Missing Value Source: NWS Daily Summary

Daily Weather History Graph

Daily Weather History Graph

Search for Another Location

Airport:

Trip Planner

Search our weather history database for the weather conditions in past years. The results will help you decide how hot, cold, wet, or windy it might be!

Date:

Astronomy

Apr. 20, 2013 Rise Set
Actual Time 6:17 AM CDT 7:21 PM CDT
Civil Twilight 5:53 AM CDT 7:46 PM CDT
Nautical Twilight 5:23 AM CDT 8:15 PM CDT
Astronomical Twilight 4:53 AM CDT 8:46 PM CDT
Moon 2:26 PM CDT (4/20) 2:44 AM CDT (4/20)
Length of Visible Light 13h 53m
Length of Day
13h 03m
Waxing Gibbous, 71% of the Moon is Illuminated
Apr 20
Waxing Gibbous
Apr 25
Full
May 2
Last Quarter
May 9
New
May 17
First Quarter

Hourly Weather History & Observations

Time (CDT) Temp. Windchill Dew Point Humidity Pressure Visibility Wind Dir Wind Speed Gust Speed Precip Events Conditions
12:15 AM 50.0 °F - 44.6 °F 82% 30.18 in 10.0 mi Calm Calm - N/A   Unknown
12:35 AM 50.0 °F - 44.6 °F 82% 30.18 in 10.0 mi NW 3.5 mph - N/A   Unknown
12:55 AM 48.2 °F - 44.6 °F 87% 30.18 in 10.0 mi Calm Calm - N/A   Unknown
1:35 AM 46.4 °F - 42.8 °F 87% 30.18 in 10.0 mi Calm Calm - N/A   Unknown
1:55 AM 46.4 °F - 42.8 °F 87% 30.18 in 10.0 mi Calm Calm - N/A   Unknown
2:15 AM 46.4 °F - 42.8 °F 87% 30.18 in 10.0 mi Calm Calm - N/A   Unknown
2:35 AM 46.4 °F 45.2 °F 42.8 °F 87% 30.18 in 10.0 mi NNW 3.5 mph - N/A   Unknown
2:55 AM 46.4 °F 44.3 °F 41.0 °F 81% 30.18 in 10.0 mi NNW 4.6 mph - N/A   Unknown
3:15 AM 46.4 °F 43.5 °F 41.0 °F 81% 30.18 in 10.0 mi NNW 5.8 mph - N/A   Unknown
3:35 AM 46.4 °F 45.2 °F 41.0 °F 81% 30.18 in 10.0 mi NNW 3.5 mph - N/A   Unknown
3:55 AM 46.4 °F 44.3 °F 41.0 °F 81% 30.18 in 10.0 mi North 4.6 mph - N/A   Unknown
4:15 AM 44.6 °F 41.4 °F 41.0 °F 87% 30.18 in 10.0 mi North 5.8 mph - N/A   Unknown
4:35 AM 44.6 °F 41.4 °F 39.2 °F 81% 30.18 in 10.0 mi North 5.8 mph - N/A   Unknown
4:55 AM 44.6 °F 42.2 °F 39.2 °F 81% 30.19 in 10.0 mi North 4.6 mph - N/A   Unknown
5:15 AM 44.6 °F 43.1 °F 39.2 °F 81% 30.20 in 10.0 mi North 3.5 mph - N/A   Unknown
5:35 AM 44.6 °F 43.1 °F 39.2 °F 81% 30.20 in 10.0 mi North 3.5 mph - N/A   Unknown
5:55 AM 44.6 °F 43.1 °F 37.4 °F 76% 30.21 in 10.0 mi North 3.5 mph - N/A   Unknown
6:15 AM 44.6 °F 43.1 °F 37.4 °F 76% 30.22 in 10.0 mi North 3.5 mph - N/A   Unknown
6:35 AM 44.6 °F 42.2 °F 37.4 °F 76% 30.22 in 10.0 mi North 4.6 mph - N/A   Unknown
6:55 AM 44.6 °F 41.4 °F 37.4 °F 76% 30.23 in 10.0 mi North 5.8 mph - N/A   Unknown
7:15 AM 44.6 °F 41.4 °F 37.4 °F 76% 30.24 in 10.0 mi North 5.8 mph - N/A   Unknown
7:35 AM 46.4 °F 44.3 °F 39.2 °F 76% 30.25 in 10.0 mi North 4.6 mph - N/A   Unknown
7:55 AM 48.2 °F - 39.2 °F 71% 30.24 in 10.0 mi North 5.8 mph - N/A   Unknown
8:15 AM 50.0 °F - 39.2 °F 66% 30.25 in 10.0 mi NNE 8.1 mph - N/A   Unknown
8:35 AM 51.8 °F - 37.4 °F 58% 30.25 in 10.0 mi NNE 9.2 mph - N/A   Unknown
8:55 AM 51.8 °F - 37.4 °F 58% 30.25 in 10.0 mi NNE 8.1 mph 17.3 mph N/A   Unknown
9:15 AM 53.6 °F - 37.4 °F 54% 30.25 in 10.0 mi NNE 9.2 mph - N/A   Unknown
9:35 AM 53.6 °F - 37.4 °F 54% 30.25 in 10.0 mi NNE 13.8 mph 18.4 mph N/A   Unknown
9:55 AM 55.4 °F - 33.8 °F 44% 30.26 in 10.0 mi NNE 10.4 mph 19.6 mph N/A   Unknown
10:15 AM 55.4 °F - 35.6 °F 47% 30.26 in 10.0 mi NNE 11.5 mph 19.6 mph N/A   Unknown
10:35 AM 57.2 °F - 33.8 °F 41% 30.26 in 10.0 mi NNE 16.1 mph 24.2 mph N/A   Unknown
10:55 AM 59.0 °F - 33.8 °F 39% 30.26 in 10.0 mi NE 10.4 mph 19.6 mph N/A   Unknown
11:15 AM 60.8 °F - 33.8 °F 36% 30.25 in 10.0 mi NE 12.7 mph 18.4 mph N/A   Unknown
11:35 AM 59.0 °F - 32.0 °F 36% 30.24 in 10.0 mi NNE 10.4 mph - N/A   Unknown
11:55 AM 60.8 °F - 33.8 °F 36% 30.23 in 10.0 mi NE 9.2 mph 18.4 mph N/A   Unknown
12:15 PM 60.8 °F - 30.2 °F 31% 30.23 in 10.0 mi NNE 10.4 mph 19.6 mph N/A   Unknown
12:35 PM 62.6 °F - 32.0 °F 32% 30.22 in 10.0 mi NNE 9.2 mph - N/A   Unknown
12:55 PM 62.6 °F - 32.0 °F 32% 30.21 in 10.0 mi NNE 10.4 mph 16.1 mph N/A   Unknown
1:15 PM 62.6 °F - 32.0 °F 32% 30.20 in 10.0 mi NNE 9.2 mph 20.7 mph N/A   Unknown
1:35 PM 64.4 °F - 32.0 °F 30% 30.19 in 10.0 mi NNW 9.2 mph - N/A   Unknown
1:55 PM 64.4 °F - 33.8 °F 32% 30.18 in 10.0 mi North 8.1 mph - N/A   Unknown
2:15 PM 64.4 °F - 32.0 °F 30% 30.17 in 10.0 mi North 11.5 mph 18.4 mph N/A   Unknown
2:35 PM 64.4 °F - 33.8 °F 32% 30.17 in 10.0 mi NNE 5.8 mph - N/A   Unknown
2:55 PM 66.2 °F - 32.0 °F 28% 30.16 in 10.0 mi NNW 8.1 mph - N/A   Unknown
3:15 PM 66.2 °F - 32.0 °F 28% 30.15 in 10.0 mi NNE 10.4 mph - N/A   Unknown
3:35 PM 68.0 °F - 32.0 °F 26% 30.15 in 10.0 mi NNE 9.2 mph - N/A   Unknown
3:55 PM 68.0 °F - 32.0 °F 26% 30.14 in 10.0 mi North 8.1 mph - N/A   Unknown
4:15 PM 68.0 °F - 33.8 °F 28% 30.13 in 10.0 mi North 8.1 mph - N/A   Unknown
4:35 PM 68.0 °F - 33.8 °F 28% 30.13 in 10.0 mi North 9.2 mph - N/A   Unknown
4:55 PM 68.0 °F - 33.8 °F 28% 30.13 in 10.0 mi NNE 5.8 mph - N/A   Unknown
5:15 PM 68.0 °F - 33.8 °F 28% 30.13 in 10.0 mi North 8.1 mph - N/A   Unknown
5:35 PM 68.0 °F - 33.8 °F 28% 30.13 in 10.0 mi NNE 5.8 mph - N/A   Unknown
5:55 PM 68.0 °F - 33.8 °F 28% 30.13 in 10.0 mi NE 8.1 mph - N/A   Unknown
6:15 PM 66.2 °F - 33.8 °F 30% 30.13 in 10.0 mi NE 5.8 mph - N/A   Unknown
6:35 PM 64.4 °F - 35.6 °F 34% 30.14 in 7.0 mi NE 5.8 mph - N/A   Unknown
6:55 PM 62.6 °F - 35.6 °F 37% 30.14 in 10.0 mi NE 5.8 mph - N/A   Unknown
7:15 PM 62.6 °F - 37.4 °F 39% 30.15 in 10.0 mi NE 3.5 mph - N/A   Unknown
7:35 PM 60.8 °F - 39.2 °F 45% 30.16 in 10.0 mi NE 3.5 mph - N/A   Unknown
7:55 PM 59.0 °F - 39.2 °F 48% 30.16 in 10.0 mi NE 4.6 mph - N/A   Unknown
8:15 PM 55.4 °F - 42.8 °F 63% 30.17 in 10.0 mi NE 3.5 mph - N/A   Unknown
8:35 PM 53.6 °F - 44.6 °F 72% 30.18 in 10.0 mi Calm Calm - N/A   Unknown
8:55 PM 53.6 °F - 44.6 °F 72% 30.19 in 10.0 mi Calm Calm - N/A   Unknown
9:15 PM 51.8 °F - 44.6 °F 76% 30.20 in 10.0 mi Calm Calm - N/A   Unknown
9:35 PM 51.8 °F - 44.6 °F 76% 30.20 in 10.0 mi Calm Calm - N/A   Unknown
9:55 PM 51.8 °F - 44.6 °F 76% 30.20 in 10.0 mi Calm Calm - N/A   Unknown
10:15 PM 51.8 °F - 42.8 °F 71% 30.20 in 10.0 mi Calm Calm - N/A   Unknown
10:35 PM 50.0 °F - 44.6 °F 82% 30.21 in 10.0 mi Calm Calm - N/A   Unknown
10:55 PM 50.0 °F - 44.6 °F 82% 30.21 in 10.0 mi North 3.5 mph - N/A   Unknown
11:15 PM 50.0 °F - 44.6 °F 82% 30.21 in 10.0 mi Calm Calm - N/A   Unknown
11:35 PM 50.0 °F - 42.8 °F 76% 30.21 in 10.0 mi Calm Calm - N/A   Unknown
11:55 PM 48.2 °F - 42.8 °F 82% 30.21 in 10.0 mi Calm Calm - N/A   Unknown